This demonstration page uses our WeatherBlox Daily Observations layout. Learn more.

Left ArrowRight Arrow

Hourly Observations for November 7, 2020

Temp ( °F °C ) Dew Point ( °F °C ) Humidity (%) Winds ( mph kmh ) Pressure ( in mb ) Visibility ( mi km ) Precip ( " mm )
12:52 am 00:52 Mostly Cloudy 59 15 54 12.2 83 83 S 14 22 29.93 1014 10 16 0.00 0.00
1:52 am 01:52 Mostly Cloudy 56 13.3 53 11.7 90 90 SSE 10 17 29.93 1014 10 16 0.00 0.00
2:52 am 02:52 Partly Cloudy 55 12.8 52 11.1 90 90 SSE 10 17 29.93 1014 10 16 0.00 0.00
3:52 am 03:52 Partly Cloudy 55 12.8 52 11.1 90 90 SSE 14 22 29.92 1013 10 16 0.00 0.00
4:52 am 04:52 Partly Cloudy 54 12.2 52 11.1 93 93 SSE 13 20 29.93 1014 10 16 0.00 0.00
5:52 am 05:52 Partly Cloudy 54 12.2 52 11.1 93 93 SSE 14 22 29.93 1014 10 16 0.00 0.00
6:52 am 06:52 Partly Cloudy 54 12.2 52 11.1 93 93 SSE 14 22 29.93 1014 10 16 0.00 0.00
7:52 am 07:52 Partly Cloudy 55 12.8 53 11.7 93 93 SSE 16 26 29.94 1014 10 16 0.00 0.00
8:35 am 08:35 Mostly Cloudy 56 13.3 53 11.7 90 90 SSE 16 26 29.95 1014 10 16 0.00 0.00
8:52 am 08:52 Mostly Cloudy 57 13.9 54 12.2 90 90 S 17 28 29.94 1014 10 16 0.00 0.00
9:52 am 09:52 Mostly Cloudy 62 16.7 55 12.8 78 78 SSE 15 24 29.92 1013 10 16 0.00 0.00
10:38 am 10:38 Mostly Cloudy 65 18.3 55 12.8 70 70 S 22 35 29.91 1013 10 16 0.00 0.00
10:52 am 10:52 Mostly Cloudy 66 18.9 55 12.8 68 68 S 23 37 29.91 1013 10 16 0.00 0.00
11:52 am 11:52 Mostly Cloudy 69 20.6 55 12.8 61 61 S 23 37 29.88 1012 10 16 0.00 0.00
12:52 pm 12:52 Mostly Cloudy 73 22.8 54 12.2 51 51 S 24 39 29.85 1011 10 16 0.00 0.00
1:52 pm 13:52 Partly Cloudy 74 23.3 53 11.7 48 48 S 28 44 29.83 1010 10 16 0.00 0.00
2:52 pm 14:52 Mostly Sunny 74 23.3 53 11.7 48 48 S 25 41 29.81 1010 10 16 0.00 0.00
3:52 pm 15:52 Mostly Sunny 74 23.3 53 11.7 48 48 S 25 41 29.81 1010 10 16 0.00 0.00
4:52 pm 16:52 Mostly Sunny 71 21.7 53 11.7 53 53 SSE 24 39 29.81 1010 10 16 0.00 0.00
5:52 pm 17:52 Mostly Clear 69 20.6 53 11.7 57 57 S 23 37 29.83 1010 10 16 0.00 0.00
6:52 pm 18:52 Mostly Clear 68 20 53 11.7 59 59 S 24 39 29.84 1010 10 16 0.00 0.00
7:52 pm 19:52 Mostly Cloudy 67 19.4 53 11.7 61 61 S 26 43 29.83 1010 10 16 0.00 0.00
8:52 pm 20:52 Partly Cloudy 65 18.3 52 11.1 63 63 S 29 46 29.83 1010 10 16 0.00 0.00
9:52 pm 21:52 Mostly Cloudy 64 17.8 51 10.6 63 63 S 25 41 29.85 1011 10 16 0.00 0.00
10:52 pm 22:52 Mostly Clear 62 16.7 49 9.4 62 62 S 21 33 29.85 1011 10 16 0.00 0.00
11:52 pm 23:52 Mostly Clear 61 16.1 48 8.9 63 63 SSE 21 33 29.83 1010 10 16 0.00 0.00

Powered by AerisWeather